Location: Bogis-Bossey
(46.3500°N, 6.1667°E)
Time: 17:14:42
(UTC+00:00)

Cosmos 2297 - Pass Details

Date: 17 August 2022
Orbit: 838 x 856 km, 71.0° (Epoch: 01 October)

Event Time Altitude Azimuth Distance (km) Brightness Sun altitude
Exits shadow 23:25:24 69° 4° (N) 910 3.9 -30.4°
Drops below altitude 10° 23:30:26 10° 25° (NNE) 2,480 6.8 -30.4°
Sets 23:32:53 0° 27° (NNE) 3,417 7.7 -30.5°
